RH
87 86 83 80 76 74 72 70 71 65 64 63 54 50 46 41 38 36 34 34 37 38 37 37 37 39 39 39 39 39 39 36 35 35 37 44 42 41 43 39 41 36 32 39 40 33 29 26 25 26 24 24 25 26 28 27 24 21 18 16 17 23 27 32 35 35 30 25 24 23 22 21 19 18 16 14 12 10 7 5 7 16 22 24 24 24 24 23 19 18 22 25 26 26 27 29 29
89 87 85 84 79 77 75 72 72 68 66 65 56 51 47 42 40 38 35 34 34 36 37 36 37 37 38 39 40 38 37 38 37 38 42 44 40 42 41 40 45 39 34 39 39 34 32 27 22 24 24 23 24 25 28 27 24 21 19 16 17 22 26 29 31 32 29 25 23 23 23 22 21 20 17 15 15 13 11 8 4 7 16 22 24 23 24 23 17 17 22 24 26 26 26 28 28
90 88 87 87 83 79 79 78 74 70 68 65 58 52 48 45 42 38 36 34 33 35 36 35 35 36 38 39 40 38 36 39 40 41 43 43 43 44 39 40 45 41 39 41 40 34 29 24 20 20 21 22 22 24 28 26 24 21 19 17 17 20 25 27 26 28 29 26 23 23 24 23 22 21 19 16 16 15 13 11 8 5 7 16 23 22 23 23 18 15 19 23 26 26 26 27 28
90 90 88 87 87 84 87 89 79 71 69 65 61 55 50 47 44 40 38 37 34 34 34 34 34 36 38 38 40 39 38 40 42 43 44 43 47 46 38 40 47 44 43 41 40 38 31 25 21 18 18 19 20 24 27 27 24 21 20 18 17 19 23 25 24 26 29 28 24 23 24 23 23 22 20 18 17 16 14 13 11 8 5 9 18 22 22 22 20 16 17 20 24 26 26 27 28
90 91 91 88 90 90 92 95 84 75 70 65 62 58 54 49 46 44 40 38 35 33 33 33 33 36 39 41 42 40 41 43 43 43 46 46 45 46 38 39 48 45 43 42 40 39 34 27 22 19 18 17 16 19 21 23 24 22 21 19 18 18 22 24 23 26 29 28 25 24 24 22 23 22 21 20 18 16 15 14 12 10 7 5 9 18 22 21 21 18 16 18 21 25 26 26 28
90 90 90 89 90 89 92 95 88 79 71 66 63 59 56 52 49 48 44 40 37 35 33 32 33 37 39 43 44 44 45 46 47 45 46 46 42 42 37 38 48 46 44 44 41 38 33 28 24 21 19 17 16 16 17 18 18 19 21 20 18 18 21 23 23 26 28 28 26 25 24 23 23 23 23 21 19 18 16 13 11 10 8 6 5 11 18 19 19 18 16 16 19 23 26 26 28
89 88 88 91 92 91 95 96 90 83 74 69 67 61 57 55 52 50 47 43 40 37 35 33 34 37 39 42 43 45 47 47 49 47 46 45 42 40 35 39 47 46 45 44 42 38 33 28 25 21 19 18 19 19 19 19 16 15 19 20 18 18 21 22 23 26 29 28 27 26 25 24 24 23 24 22 21 19 15 12 11 9 7 7 5 6 11 16 18 19 16 15 18 22 26 27 28
87 87 88 93 96 97 97 96 92 87 79 73 70 65 61 59 56 52 48 46 43 40 37 34 35 37 39 41 41 44 48 49 49 47 45 43 42 40 37 43 49 47 44 43 42 37 32 28 24 22 19 19 20 21 22 23 21 15 15 18 19 18 21 21 20 26 30 29 27 26 25 25 25 25 25 24 22 19 15 12 10 8 7 7 7 5 6 13 16 19 18 15 18 21 25 27 27
84 86 87 91 95 96 96 95 93 88 83 79 74 70 69 66 61 54 49 46 43 42 40 37 36 35 38 40 40 45 49 50 49 46 44 43 41 39 39 45 50 47 44 43 41 36 33 29 26 24 20 18 20 21 23 23 23 21 14 15 19 19 22 21 20 27 30 28 28 27 27 26 25 25 25 25 23 19 15 12 10 8 8 7 7 6 4 11 15 17 19 16 18 22 25 27 26
83 85 88 90 90 91 92 92 93 91 86 83 81 77 75 73 67 59 52 47 44 42 41 39 38 36 37 40 41 47 50 50 51 47 45 44 41 40 42 45 49 48 46 43 37 35 36 32 29 27 21 21 23 22 24 23 23 22 14 12 18 20 23 24 24 31 32 29 28 29 29 28 26 25 25 25 23 20 15 12 11 9 10 7 6 7 5 11 16 17 20 17 19 22 25 27 26
87 87 87 89 88 87 88 89 91 91 89 87 86 83 80 79 74 67 58 51 47 44 42 39 39 38 38 41 44 49 51 51 53 50 47 46 42 42 46 48 51 50 46 41 36 37 38 34 30 28 24 24 26 24 24 22 18 15 11 11 17 21 24 26 28 33 33 29 28 29 30 28 27 26 25 26 24 20 16 13 12 10 11 8 6 7 5 9 14 19 21 19 19 22 24 25 25
93 92 90 89 88 86 86 87 87 89 91 90 90 87 84 84 81 75 65 56 51 48 44 41 40 39 39 41 45 49 51 52 53 52 51 50 45 44 47 50 52 51 46 39 37 39 38 35 32 29 27 26 26 24 19 14 10 8 9 13 18 23 25 27 31 33 32 30 29 30 30 28 28 28 27 27 25 21 17 15 12 10 11 10 7 7 6 6 9 15 20 21 21 22 23 24 25
96 96 95 91 88 86 86 86 85 86 88 89 91 90 87 87 86 81 74 65 57 52 47 44 43 41 39 40 43 49 51 52 54 53 54 55 49 44 44 49 54 51 44 40 41 40 39 38 34 29 28 28 25 18 11 8 7 7 10 16 20 24 26 28 34 37 36 33 30 30 30 29 28 27 27 27 25 21 18 16 13 11 11 11 8 6 7 6 6 10 16 20 21 22 24 25 25
93 96 96 94 90 88 87 87 87 86 85 87 89 90 90 89 88 85 82 73 63 56 53 49 46 44 41 40 43 47 47 48 54 55 55 57 54 47 42 45 53 50 43 43 43 41 40 38 35 32 29 27 20 11 8 7 7 10 15 20 23 26 28 30 36 39 38 36 32 30 30 29 28 27 27 26 25 22 18 16 14 11 12 12 9 7 6 5 5 6 10 13 18 22 24 25 26
81 89 93 94 92 89 87 87 87 86 85 86 85 86 90 90 87 88 87 82 72 63 58 54 50 47 45 42 42 44 42 43 52 56 55 57 56 51 45 44 51 51 45 44 44 42 40 38 37 34 30 25 15 9 8 7 10 16 19 22 25 28 30 30 34 38 39 37 33 31 29 30 29 28 28 26 24 22 19 17 15 12 12 12 10 9 6 6 5 5 6 9 13 18 20 23 26
68 76 85 90 91 89 87 85 84 83 80 80 80 81 86 88 88 89 88 87 83 72 64 59 55 51 50 48 45 45 42 42 51 57 57 57 57 55 51 50 52 51 47 45 45 44 42 39 38 35 32 25 13 10 14 13 15 18 21 24 26 29 30 31 37 40 41 38 34 32 29 31 32 29 28 26 25 23 20 19 16 12 12 14 12 10 8 6 6 6 6 7 10 12 15 19 23
58 63 73 81 83 81 79 79 77 74 72 72 75 75 76 81 86 88 87 87 86 81 72 63 59 56 54 52 49 48 45 46 54 58 58 58 58 58 57 55 53 51 48 47 46 46 45 42 41 37 32 27 15 12 20 21 19 19 22 24 27 32 32 33 40 41 38 37 34 31 28 32 35 34 33 29 26 25 22 20 17 14 12 14 15 13 11 9 8 8 7 7 8 9 13 17 20
50 53 60 66 68 69 68 70 70 68 68 69 72 73 71 73 79 83 86 87 87 85 80 71 65 60 57 55 53 52 49 52 59 60 59 59 59 60 59 57 55 52 50 49 47 47 47 45 43 39 34 31 21 16 23 23 21 23 23 24 26 33 35 34 40 40 36 34 30 30 34 38 37 35 36 32 28 26 23 21 18 16 13 13 16 16 15 14 11 9 8 7 7 8 12 16 19
44 47 50 51 53 58 62 65 67 67 67 66 66 69 70 70 73 76 79 83 86 86 83 79 73 66 61 58 55 55 54 56 62 63 62 61 61 61 61 59 56 54 53 52 50 48 47 47 47 42 37 34 27 21 23 23 23 24 23 25 26 30 35 38 40 37 37 37 29 29 36 39 35 33 36 34 30 28 25 22 19 17 15 13 16 18 19 18 16 13 10 8 8 8 9 12 16
35 39 42 44 43 46 54 61 64 65 66 64 63 65 68 70 72 73 72 73 79 83 83 84 81 74 68 63 57 56 58 58 61 66 67 66 64 62 62 61 59 57 55 54 51 50 50 49 48 44 40 38 34 26 23 22 21 20 22 25 27 29 33 37 38 35 36 36 30 30 33 32 31 32 35 37 34 31 28 24 21 19 17 14 14 19 21 21 19 17 15 13 11 10 9 9 11
26 28 31 34 34 37 44 49 55 59 61 63 63 64 64 67 70 70 71 70 71 76 81 84 84 82 77 70 62 59 60 59 60 64 67 70 69 67 65 63 63 61 58 55 53 52 52 50 48 47 42 42 42 35 26 24 20 16 20 25 27 28 30 31 32 33 33 30 28 32 32 28 30 34 38 43 43 39 31 25 23 20 19 17 14 19 23 23 22 21 21 19 19 17 15 12 11
22 21 23 24 24 29 32 33 38 43 49 54 59 61 59 60 66 66 69 69 69 71 75 81 84 85 83 79 71 64 62 60 60 60 62 68 71 71 70 65 66 67 62 59 57 55 53 52 53 51 47 45 45 44 36 30 26 20 20 22 23 24 26 25 26 27 27 25 25 28 28 26 32 41 45 48 50 47 36 27 25 22 21 19 16 18 24 25 25 25 24 23 23 22 20 17 15
19 18 19 19 20 22 23 23 25 28 33 39 46 50 48 50 55 57 60 63 65 68 71 76 83 85 85 84 79 72 66 61 59 60 61 64 67 70 71 68 67 69 65 61 60 57 53 53 55 54 52 47 46 52 47 36 32 28 24 23 21 22 23 23 22 23 24 24 24 24 25 25 29 39 47 50 52 50 38 28 27 25 23 23 19 19 24 26 26 25 23 22 22 21 21 20 19
18 17 17 17 17 17 17 18 18 20 22 26 32 37 38 40 43 45 48 52 57 64 68 72 78 83 85 85 82 78 72 65 60 60 64 64 64 68 72 73 70 70 66 61 61 59 54 55 56 55 54 50 50 55 49 39 36 33 31 29 25 24 24 24 23 22 24 24 24 26 25 24 25 29 35 43 50 48 37 28 28 27 25 25 24 21 23 26 25 23 22 21 20 20 21 22 22
16 15 16 15 15 15 15 16 15 16 16 17 22 26 29 32 36 37 37 42 47 53 61 66 70 77 83 86 84 82 78 72 65 61 63 65 65 67 71 75 73 72 70 64 63 61 57 60 59 55 54 54 56 56 49 42 40 37 34 33 30 28 26 25 24 22 22 22 23 25 25 24 24 23 25 32 38 36 29 26 29 28 27 28 27 24 22 22 22 21 21 22 23 24 25 25 25
16 15 16 15 14 14 15 15 15 14 14 15 16 18 21 25 30 33 33 35 39 43 50 56 62 66 74 83 86 85 81 76 72 68 64 65 66 67 69 74 74 74 74 69 66 64 61 64 67 62 54 55 57 58 55 47 43 41 38 36 34 33 30 28 26 22 20 22 22 23 24 23 23 23 23 26 27 24 22 23 26 27 28 29 28 25 20 18 20 21 23 26 28 29 29 29 29
18 17 17 16 15 16 16 15 15 15 15 14 14 14 16 20 26 29 30 30 32 36 40 45 51 56 62 71 78 84 85 81 77 76 73 69 67 67 68 71 73 75 76 72 69 67 65 65 73 73 59 53 56 57 56 50 47 46 41 39 36 35 34 33 31 26 22 22 23 23 23 21 22 24 24 25 24 22 23 25 26 27 29 30 28 25 20 18 20 23 27 30 32 32 33 33 33
19 18 17 16 16 16 16 15 16 17 15 14 14 14 15 19 23 23 23 23 25 31 34 37 40 45 52 59 67 74 82 85 83 79 77 74 69 67 67 67 68 72 76 76 72 69 69 67 70 73 65 59 59 57 56 54 51 47 44 44 42 39 36 35 34 29 25 23 23 25 23 19 20 22 24 27 27 25 26 29 29 28 31 29 26 24 23 21 21 26 31 33 34 35 36 37 36
20 19 16 14 15 14 13 14 16 16 14 13 14 12 12 15 18 18 17 16 18 24 29 32 34 37 42 49 56 63 71 80 85 83 80 76 70 66 64 63 63 66 69 73 75 72 70 71 72 72 69 66 63 60 58 58 55 49 47 47 46 45 39 36 34 30 27 26 26 26 23 19 17 18 21 25 26 25 27 33 33 31 30 28 26 26 25 23 23 28 33 35 36 36 37 39 39
18 18 16 13 12 11 13 15 17 16 14 15 13 10 9 11 14 14 13 14 17 20 21 24 28 32 35 38 44 51 60 69 78 83 83 80 76 71 67 65 64 63 62 63 69 72 71 73 76 76 73 69 66 65 61 59 57 54 53 51 49 48 44 41 37 32 30 30 29 27 24 22 22 21 22 24 26 27 29 35 35 32 30 29 29 28 27 26 25 28 33 34 34 35 37 39 40
17 16 16 13 9 10 13 15 16 15 15 15 13 11 9 9 11 11 11 13 17 18 16 17 21 25 29 33 35 40 48 57 68 76 81 83 80 76 74 71 69 67 64 61 62 67 72 72 73 77 77 74 71 69 67 64 59 55 55 55 50 46 45 44 41 37 34 33 32 29 27 27 30 33 33 33 35 34 32 32 33 32 31 32 33 31 30 29 27 28 31 34 33 34 36 38 38
17 13 13 13 11 11 12 13 14 13 15 17 14 12 11 10 11 11 11 11 14 16 15 15 17 20 23 27 31 34 38 46 56 66 73 80 81 80 78 76 75 72 69 67 63 63 70 72 75 79 80 83 83 76 73 71 67 62 59 58 54 48 44 42 42 41 39 38 34 31 32 33 36 41 41 40 42 42 37 36 38 37 35 36 35 34 33 31 29 27 29 32 32 34 36 38 37
15 12 10 12 11 10 10 12 15 15 16 17 15 13 11 10 11 11 11 11 13 14 14 16 17 19 20 21 25 28 31 34 42 55 65 71 76 78 79 79 78 76 73 71 67 65 68 70 79 87 86 89 93 88 83 80 77 74 69 64 61 56 50 45 43 43 43 43 39 34 36 39 39 40 42 41 43 45 43 43 45 43 41 40 39 38 37 33 30 28 30 32 33 35 37 39 39
12 13 12 13 12 11 10 11 16 17 16 17 15 14 12 10 11 11 10 10 12 13 13 14 15 16 17 18 20 22 24 26 28 38 52 62 68 71 74 77 79 79 77 74 71 70 68 65 71 81 85 88 91 92 92 89 85 84 81 75 69 63 59 55 50 45 43 45 45 42 42 44 40 39 43 44 43 45 46 46 47 46 46 44 41 41 38 35 33 32 33 34 36 38 38 40 42
11 12 12 13 13 12 12 12 14 15 15 14 14 13 11 10 10 10 10 10 11 12 11 12 12 13 14 14 15 16 17 19 20 22 31 46 59 65 66 69 74 78 80 78 75 75 73 65 62 68 77 83 85 90 95 94 89 88 87 86 80 73 68 65 60 51 45 44 47 48 47 46 42 40 44 46 45 46 45 44 44 44 45 44 41 41 38 36 36 36 37 38 38 40 41 44 45
10 11 10 11 11 11 13 13 14 15 13 12 12 11 10 9 9 9 10 11 10 10 11 11 11 11 12 12 12 12 12 13 14 15 17 26 40 53 61 63 67 72 77 79 79 80 77 69 63 64 72 81 81 84 91 93 92 90 89 89 87 82 77 72 67 59 51 47 46 48 49 49 47 44 42 42 44 47 45 43 46 44 41 40 39 39 38 37 38 39 40 40 41 41 43 46 48
12 12 11 11 10 10 13 14 15 16 14 11 10 10 9 9 9 8 8 10 10 9 10 10 10 11 10 11 10 10 11 10 10 11 13 15 21 32 45 55 60 64 70 76 79 81 80 74 69 65 68 78 82 79 81 83 85 87 87 88 88 86 83 80 75 68 61 56 53 51 50 52 52 51 47 43 42 45 44 43 47 45 39 38 38 38 38 38 39 41 42 42 43 44 45 47 48
15 14 13 13 13 12 13 13 14 17 16 11 11 12 11 10 10 9 9 9 10 9 10 10 9 10 10 10 10 9 8 8 8 9 10 11 13 16 23 35 46 55 60 67 73 78 80 79 76 71 68 74 81 80 76 74 74 78 81 83 85 85 84 84 82 77 71 66 61 58 55 54 54 54 53 49 45 46 46 44 46 45 41 39 38 38 38 39 40 42 43 45 46 47 48 49 48
17 16 15 14 13 13 14 15 15 17 17 13 13 15 13 11 11 10 10 9 10 10 9 10 9 9 9 9 10 9 7 6 6 7 7 8 9 11 13 18 27 38 47 55 62 69 76 79 79 77 73 73 79 80 77 74 72 75 80 82 84 84 83 84 84 82 79 75 71 67 63 59 57 55 55 54 52 52 52 51 51 50 47 43 40 40 40 41 42 44 45 48 49 49 50 50 50
18 17 16 14 13 12 13 18 20 19 18 16 17 18 14 12 12 11 11 10 10 11 10 10 10 9 9 9 9 9 9 7 6 4 5 5 6 8 9 11 14 20 29 39 49 58 65 73 79 80 77 74 76 79 79 76 75 77 83 86 86 85 84 83 84 84 82 81 80 77 74 71 68 64 60 57 56 55 56 56 55 54 52 49 46 44 44 44 45 47 49 50 50 48 48 49 52
18 19 16 14 14 14 14 17 19 18 17 17 18 20 14 10 14 13 10 11 11 11 12 11 11 11 10 10 10 10 10 9 8 5 4 4 4 6 7 9 10 12 16 23 33 44 53 61 71 78 81 77 75 77 79 78 77 79 85 88 87 86 84 83 85 85 83 81 81 81 81 79 80 79 74 69 64 60 58 57 56 56 56 54 52 50 50 50 50 50 51 51 51 51 50 51 52
16 17 17 15 15 17 17 17 18 21 20 19 20 22 16 11 16 17 12 12 12 11 12 11 11 12 12 11 9 8 9 8 7 6 5 5 4 5 6 7 8 9 11 14 18 28 39 49 58 68 77 80 78 77 79 79 79 80 82 84 83 83 84 84 85 86 84 81 76 80 85 84 83 83 83 83 82 76 72 68 64 61 60 59 58 56 55 57 57 57 57 57 59 61 61 59 56
14 16 16 17 17 19 20 18 21 25 23 23 25 23 17 12 14 16 14 14 12 10 11 11 11 12 11 10 8 6 7 7 7 6 6 6 6 5 7 7 8 9 9 11 12 16 24 35 45 55 65 74 78 80 81 80 80 81 82 83 82 81 83 85 85 84 85 85 81 82 86 85 83 81 81 83 83 82 81 81 79 76 74 71 70 71 69 68 69 70 70 71 72 75 76 72 65
16 18 18 18 18 20 22 22 25 26 24 27 29 24 23 21 13 11 13 14 14 12 11 10 11 12 10 8 7 6 6 6 7 7 6 6 7 7 7 8 8 9 9 9 10 12 15 21 31 42 53 63 72 81 86 85 83 82 83 85 87 87 88 88 87 86 85 86 86 84 80 80 80 79 79 79 77 79 79 79 80 80 82 81 79 81 78 74 76 80 83 87 89 91 91 85 78
19 22 22 21 21 22 24 27 29 30 31 34 30 26 31 27 15 12 13 13 15 14 11 10 9 10 10 8 7 6 6 6 6 7 7 6 6 7 7 9 9 9 9 9 9 11 12 15 20 29 40 50 61 73 85 91 90 87 84 86 90 93 93 92 91 88 82 77 76 78 77 78 80 79 78 78 77 79 78 76 77 77 80 81 78 78 78 74 77 82 85 91 97 99 97 93 87
22 25 24 24 25 25 28 32 34 38 43 42 31 26 32 26 14 15 16 12 13 12 9 9 8 9 10 8 7 7 6 7 7 6 7 7 6 7 8 9 9 9 9 9 9 10 12 14 16 20 27 37 48 58 71 83 90 92 90 88 90 93 95 93 89 83 78 74 71 72 73 75 79 81 78 75 74 76 76 75 77 79 81 81 78 80 82 79 78 84 86 87 90 95 96 93 89
25 26 27 28 28 28 33 37 38 45 51 45 30 23 30 28 17 14 16 11 9 9 7 8 8 8 10 9 8 8 7 6 7 6 7 7 6 7 8 9 9 10 9 9 9 10 12 15 16 19 22 28 36 44 53 63 72 81 85 85 85 89 93 91 85 81 79 78 75 73 72 70 74 81 81 76 73 73 72 72 75 80 81 79 79 80 82 83 81 84 88 88 88 91 92 92 88
29 29 30 34 33 32 39 43 47 54 50 37 27 25 33 36 22 12 14 12 7 7 8 7 8 8 8 9 8 7 6 6 6 6 6 6 6 6 8 10 10 9 10 10 9 10 13 18 19 20 23 26 31 37 43 48 54 65 75 79 81 83 87 87 84 83 83 82 81 79 78 74 72 76 80 81 79 75 70 68 69 74 75 74 74 73 73 77 78 81 85 87 88 89 91 92 90
35 37 38 40 37 37 44 44 45 52 42 27 22 28 39 41 27 14 12 12 8 7 8 7 7 7 7 8 8 6 6 6 5 5 5 6 6 7 8 9 10 10 10 10 10 10 15 21 23 23 26 29 31 34 38 41 44 53 61 68 75 78 79 80 80 81 82 83 83 83 83 83 80 77 78 79 81 78 74 71 68 68 69 68 67 65 63 64 68 73 77 80 82 84 85 86 85
37 38 42 44 40 46 52 40 34 37 32 26 22 28 41 40 26 15 10 10 10 8 8 8 8 8 8 7 7 7 7 6 5 5 5 6 6 7 9 10 10 11 11 12 12 12 16 23 26 26 28 30 32 32 34 35 38 43 47 54 64 71 73 72 71 70 72 77 82 84 85 87 87 85 82 80 80 79 76 73 71 68 68 66 64 62 59 57 58 61 66 70 74 77 77 76 74
38 27 33 43 39 39 41 32 31 31 26 27 28 34 42 36 23 16 10 11 13 11 8 8 9 8 8 8 8 8 7 7 6 5 5 6 7 8 10 11 12 12 13 15 15 16 20 24 26 27 29 30 31 31 30 30 33 38 41 45 53 60 64 65 62 60 61 65 72 80 86 88 88 88 88 86 85 84 81 77 74 71 69 67 65 62 59 56 54 55 57 59 61 65 67 66 65
41 31 39 48 39 33 32 29 33 35 34 36 34 33 31 24 19 16 13 14 15 14 12 10 11 10 9 10 9 8 9 8 8 7 6 6 7 9 10 11 13 13 15 18 20 23 25 27 28 28 29 30 30 30 28 25 29 35 40 44 48 51 54 56 58 60 61 61 63 70 77 82 85 86 86 87 87 87 86 84 82 79 75 73 69 66 63 60 57 55 55 55 56 56 56 57 57
44 48 54 47 39 43 48 46 42 45 54 49 36 31 26 22 22 16 12 13 11 13 15 12 12 12 12 12 10 9 9 10 9 9 8 7 7 8 9 11 13 15 17 19 23 26 28 29 30 29 29 30 29 28 28 27 30 37 43 48 51 51 50 51 54 59 64 67 69 69 70 71 75 79 80 82 84 84 85 85 85 84 82 80 77 73 70 66 62 59 56 56 58 57 56 55 54
54 59 56 48 49 56 61 66 62 62 69 58 39 36 34 33 32 23 17 15 11 13 16 14 14 14 13 13 12 12 11 11 11 11 10 9 8 8 9 11 13 17 20 22 24 28 30 31 31 31 31 30 30 29 31 33 37 42 46 49 51 52 52 52 52 54 58 62 66 67 66 64 66 71 74 77 78 79 79 79 80 81 82 81 80 78 77 74 71 68 63 60 59 59 58 56 55
53 57 55 58 69 70 68 77 77 72 74 66 51 45 44 42 37 30 26 19 14 15 17 19 18 15 14 15 15 16 14 13 13 12 11 10 9 9 10 12 15 18 22 24 25 27 30 32 32 32 32 32 33 32 34 38 42 46 48 49 50 51 50 49 48 49 49 49 51 54 58 61 62 63 66 69 71 73 74 74 74 75 75 76 77 78 78 77 77 76 73 70 66 63 60 58 57
51 56 56 59 69 69 66 73 78 78 78 71 60 53 48 46 42 38 36 27 20 20 19 20 20 16 15 16 17 18 17 17 15 14 13 11 11 11 12 15 18 20 22 23 23 23 26 30 31 33 34 33 34 36 38 42 46 48 50 50 50 49 48 46 45 45 44 43 43 44 47 51 54 57 58 59 59 60 62 64 65 67 68 69 71 73 74 75 75 75 75 74 72 69 67 65 62
64 66 65 65 69 68 67 70 72 78 83 77 70 63 49 43 45 44 42 38 33 29 23 21 22 21 20 19 19 19 18 18 18 17 16 15 14 15 16 19 21 22 23 23 22 21 22 25 29 32 35 35 36 38 40 44 48 51 52 51 51 50 49 47 45 43 42 42 42 41 40 40 42 45 48 50 51 51 52 53 54 56 58 61 63 65 68 71 72 73 73 73 72 71 71 70 69
63 67 68 70 72 74 82 81 67 69 82 77 72 73 58 49 54 54 50 46 41 38 32 27 27 28 29 27 25 22 20 19 18 19 20 19 18 18 19 22 24 24 24 24 22 21 20 22 26 30 34 36 37 39 41 43 46 48 50 50 49 49 48 47 45 44 42 41 40 38 37 36 35 35 36 38 41 45 47 49 50 50 51 53 56 58 61 64 67 69 71 71 71 71 71 70 70